Location: Newark
(48.1500°N, 2.9667°W)
Time: 03:45:06
(UTC+00:00)

Altair - Pass Details

Date: 02 February 2020
Orbit: 1502 x 1682 km, 47.2° (Epoch: 16 February)

Event Time Altitude Azimuth Distance (km) Brightness Sun altitude
Rises 04:26:47 0° 181° (S) 4,786 10.0 -32.2°
Reaches altitude 10° 04:31:09 10° 164° (SSE) 3,838 9.6 -31.5°
Maximum altitude 04:37:10 18° 126° (SE) 3,265 9.6 -30.5°
Drops below altitude 10° 04:43:16 10° 88° (E) 3,922 10.6 -29.5°
Sets 04:47:45 0° 71° (ENE) 4,930 11.3 -28.8°
